Time,TemperatureF,DewpointF,PressureIn,WindDirection,WindDirectionDegrees,WindSpeedMPH,WindSpeedGustMPH,Humidity,HourlyPrecipIn,Conditions,Clouds,dailyrainin,SoftwareType,DateUTC
2013-10-16 00:10:00,53.6,50.0,30.16,ESE,105,0.0,0.0,88,0.00,,,0.00,weatherlink.com 1.10,2013-10-16 04:10:00,
2013-10-16 00:25:00,52.5,49.0,30.16,ESE,105,0.0,0.0,89,0.00,,,0.00,weatherlink.com 1.10,2013-10-16 04:25:00,
2013-10-16 00:40:00,51.8,49.0,30.16,ESE,105,0.0,0.0,90,0.00,,,0.00,weatherlink.com 1.10,2013-10-16 04:40:00,
2013-10-16 00:55:00,51.0,49.0,30.16,ESE,105,0.0,0.0,91,0.00,,,0.00,weatherlink.com 1.10,2013-10-16 04:55:00,
2013-10-16 01:10:00,50.5,48.0,30.16,ESE,105,0.0,0.0,92,0.00,,,0.00,weatherlink.com 1.10,2013-10-16 05:10:00,
2013-10-16 01:25:00,49.8,48.0,30.15,ESE,105,0.0,0.0,92,0.00,,,0.00,weatherlink.com 1.10,2013-10-16 05:25:00,
2013-10-16 01:41:00,49.5,48.0,30.15,ESE,105,0.0,0.0,93,0.00,,,0.00,weatherlink.com 1.10,2013-10-16 05:41:00,
2013-10-16 01:56:00,49.0,47.0,30.14,ESE,105,0.0,0.0,93,0.00,,,0.00,weatherlink.com 1.10,2013-10-16 05:56:00,
2013-10-16 02:11:00,48.6,47.0,30.14,ESE,105,0.0,0.0,93,0.00,,,0.00,weatherlink.com 1.10,2013-10-16 06:11:00,
2013-10-16 02:26:00,48.2,46.0,30.14,ESE,105,0.0,0.0,93,0.00,,,0.00,weatherlink.com 1.10,2013-10-16 06:26:00,
2013-10-16 02:41:00,47.8,46.0,30.13,ESE,105,0.0,0.0,93,0.00,,,0.00,weatherlink.com 1.10,2013-10-16 06:41:00,
2013-10-16 02:56:00,47.4,46.0,30.12,ESE,105,0.0,0.0,93,0.00,,,0.00,weatherlink.com 1.10,2013-10-16 06:56:00,
2013-10-16 03:11:00,47.0,45.0,30.11,ESE,105,0.0,0.0,94,0.00,,,0.00,weatherlink.com 1.10,2013-10-16 07:11:00,
2013-10-16 03:26:00,47.0,45.0,30.12,ESE,105,0.0,1.0,94,0.00,,,0.00,weatherlink.com 1.10,2013-10-16 07:26:00,
2013-10-16 03:41:00,46.9,45.0,30.13,ESE,105,0.0,0.0,94,0.00,,,0.00,weatherlink.com 1.10,2013-10-16 07:41:00,
2013-10-16 03:56:00,47.4,46.0,30.13,West,277,0.0,1.0,95,0.00,,,0.00,weatherlink.com 1.10,2013-10-16 07:56:00,
2013-10-16 04:11:00,48.1,47.0,30.14,SW,233,0.0,1.0,95,0.00,,,0.00,weatherlink.com 1.10,2013-10-16 08:11:00,
2013-10-16 04:26:00,49.1,48.0,30.14,SW,230,0.0,2.0,96,0.00,,,0.00,weatherlink.com 1.10,2013-10-16 08:26:00,
2013-10-16 04:41:00,49.3,48.0,30.15,WNW,296,0.0,2.0,95,0.00,,,0.00,weatherlink.com 1.10,2013-10-16 08:41:00,
2013-10-16 04:56:00,49.5,48.0,30.14,SW,231,0.0,1.0,95,0.00,,,0.00,weatherlink.com 1.10,2013-10-16 08:56:00,
2013-10-16 05:11:00,49.7,48.0,30.12,SW,232,0.0,0.0,95,0.00,,,0.00,weatherlink.com 1.10,2013-10-16 09:11:00,
2013-10-16 05:26:00,49.7,48.0,30.12,SW,232,0.0,0.0,95,0.00,,,0.00,weatherlink.com 1.10,2013-10-16 09:26:00,
2013-10-16 05:41:00,49.9,49.0,30.12,SW,232,0.0,0.0,95,0.00,,,0.00,weatherlink.com 1.10,2013-10-16 09:41:00,
2013-10-16 05:56:00,50.1,49.0,30.11,South,178,0.0,1.0,95,0.00,,,0.00,weatherlink.com 1.10,2013-10-16 09:56:00,
2013-10-16 06:11:00,50.2,49.0,30.12,South,178,0.0,0.0,95,0.00,,,0.00,weatherlink.com 1.10,2013-10-16 10:11:00,
2013-10-16 06:26:00,50.2,49.0,30.11,South,178,0.0,0.0,95,0.00,,,0.00,weatherlink.com 1.10,2013-10-16 10:26:00,
2013-10-16 06:41:00,50.4,49.0,30.11,SW,221,0.0,0.0,95,0.00,,,0.00,weatherlink.com 1.10,2013-10-16 10:41:00,
2013-10-16 06:56:00,50.6,50.0,30.10,SW,221,0.0,0.0,96,0.00,,,0.00,weatherlink.com 1.10,2013-10-16 10:56:00,
2013-10-16 07:11:00,50.6,50.0,30.11,SW,221,0.0,0.0,96,0.00,,,0.00,weatherlink.com 1.10,2013-10-16 11:11:00,
2013-10-16 07:26:00,50.8,50.0,30.12,SW,221,0.0,1.0,96,0.00,,,0.00,weatherlink.com 1.10,2013-10-16 11:26:00,
2013-10-16 07:41:00,50.9,50.0,30.12,NNW,334,0.0,1.0,96,0.00,,,0.00,weatherlink.com 1.10,2013-10-16 11:41:00,
2013-10-16 07:56:00,51.1,50.0,30.12,NW,306,0.0,0.0,96,0.00,,,0.00,weatherlink.com 1.10,2013-10-16 11:56:00,
2013-10-16 08:11:00,51.5,50.0,30.12,NNW,327,0.0,1.0,96,0.00,,,0.00,weatherlink.com 1.10,2013-10-16 12:11:00,
2013-10-16 08:26:00,51.7,51.0,30.12,NNW,343,0.0,1.0,96,0.00,,,0.00,weatherlink.com 1.10,2013-10-16 12:26:00,
2013-10-16 08:41:00,52.1,51.0,30.11,NE,40,0.0,1.0,96,0.00,,,0.00,weatherlink.com 1.10,2013-10-16 12:41:00,
2013-10-16 08:56:00,52.4,51.0,30.11,ENE,67,0.0,1.0,96,0.00,,,0.00,weatherlink.com 1.10,2013-10-16 12:56:00,
2013-10-16 09:11:00,52.7,52.0,30.11,West,260,0.0,1.0,96,0.00,,,0.00,weatherlink.com 1.10,2013-10-16 13:11:00,
2013-10-16 09:26:00,53.2,52.0,30.10,NNW,333,0.0,1.0,96,0.00,,,0.00,weatherlink.com 1.10,2013-10-16 13:26:00,
2013-10-16 09:41:00,53.9,53.0,30.10,NW,310,0.0,1.0,96,0.00,,,0.00,weatherlink.com 1.10,2013-10-16 13:41:00,
2013-10-16 09:56:00,54.5,53.0,30.09,NNW,328,0.0,1.0,95,0.00,,,0.00,weatherlink.com 1.10,2013-10-16 13:56:00,
2013-10-16 10:11:00,55.2,54.0,30.09,NNW,332,0.0,2.0,94,0.00,,,0.00,weatherlink.com 1.10,2013-10-16 14:11:00,
2013-10-16 10:26:00,56.5,54.0,30.08,WNW,302,0.0,2.0,92,0.00,,,0.00,weatherlink.com 1.10,2013-10-16 14:26:00,
2013-10-16 10:41:00,57.8,55.0,30.07,NNW,336,2.0,3.0,89,0.00,,,0.00,weatherlink.com 1.10,2013-10-16 14:41:00,
2013-10-16 10:56:00,59.0,54.0,30.07,ESE,117,1.0,4.0,83,0.00,,,0.00,weatherlink.com 1.10,2013-10-16 14:56:00,
2013-10-16 11:11:00,60.5,54.0,30.07,East,97,0.0,5.0,79,0.00,,,0.00,weatherlink.com 1.10,2013-10-16 15:11:00,
2013-10-16 11:26:00,61.7,55.0,30.06,East,98,1.0,2.0,78,0.00,,,0.00,weatherlink.com 1.10,2013-10-16 15:26:00,
2013-10-16 11:41:00,62.2,55.0,30.06,ESE,110,0.0,2.0,77,0.00,,,0.00,weatherlink.com 1.10,2013-10-16 15:41:00,
2013-10-16 12:12:00,62.5,55.0,30.04,SSE,160,0.0,2.0,75,0.00,,,0.00,weatherlink.com 1.10,2013-10-16 16:12:00,
2013-10-16 12:27:00,62.1,54.0,30.04,ENE,67,0.0,3.0,75,0.00,,,0.00,weatherlink.com 1.10,2013-10-16 16:27:00,
2013-10-16 12:42:00,62.0,54.0,30.03,ESE,107,1.0,2.0,76,0.00,,,0.00,weatherlink.com 1.10,2013-10-16 16:42:00,
2013-10-16 12:57:00,62.1,54.0,30.02,NNE,19,0.0,1.0,76,0.00,,,0.00,weatherlink.com 1.10,2013-10-16 16:57:00,
2013-10-16 13:12:00,62.3,54.0,30.01,ESE,114,0.0,4.0,75,0.00,,,0.00,weatherlink.com 1.10,2013-10-16 17:12:00,
2013-10-16 13:27:00,62.2,55.0,30.01,NNW,341,0.0,1.0,76,0.00,,,0.00,weatherlink.com 1.10,2013-10-16 17:27:00,
2013-10-16 13:42:00,62.3,54.0,30.00,NW,326,1.0,2.0,75,0.00,,,0.00,weatherlink.com 1.10,2013-10-16 17:42:00,
2013-10-16 13:57:00,62.4,54.0,29.99,WNW,296,0.0,2.0,75,0.00,,,0.00,weatherlink.com 1.10,2013-10-16 17:57:00,
2013-10-16 14:12:00,62.4,54.0,29.99,NW,312,0.0,3.0,75,0.00,,,0.00,weatherlink.com 1.10,2013-10-16 18:12:00,
2013-10-16 14:27:00,62.4,54.0,30.00,West,265,0.0,2.0,75,0.00,,,0.00,weatherlink.com 1.10,2013-10-16 18:27:00,
2013-10-16 14:42:00,62.4,54.0,30.00,NW,316,0.0,1.0,75,0.00,,,0.00,weatherlink.com 1.10,2013-10-16 18:42:00,
2013-10-16 14:57:00,62.2,55.0,29.98,NNW,331,0.0,1.0,76,0.00,,,0.00,weatherlink.com 1.10,2013-10-16 18:57:00,
2013-10-16 15:12:00,61.9,55.0,29.98,NW,319,0.0,1.0,77,0.00,,,0.00,weatherlink.com 1.10,2013-10-16 19:12:00,
2013-10-16 15:27:00,61.8,55.0,29.98,North,360,0.0,1.0,77,0.00,,,0.00,weatherlink.com 1.10,2013-10-16 19:27:00,
2013-10-16 15:42:00,61.6,55.0,29.99,NW,307,0.0,1.0,78,0.00,,,0.00,weatherlink.com 1.10,2013-10-16 19:42:00,
2013-10-16 15:57:00,61.6,55.0,29.98,SSE,153,0.0,1.0,79,0.00,,,0.00,weatherlink.com 1.10,2013-10-16 19:57:00,
2013-10-16 16:12:00,61.4,55.0,29.97,South,191,0.0,1.0,78,0.00,,,0.00,weatherlink.com 1.10,2013-10-16 20:12:00,
2013-10-16 16:27:00,61.2,55.0,29.98,West,276,0.0,1.0,79,0.00,,,0.00,weatherlink.com 1.10,2013-10-16 20:27:00,
2013-10-16 16:42:00,61.2,55.0,29.98,West,276,0.0,0.0,79,0.00,,,0.00,weatherlink.com 1.10,2013-10-16 20:42:00,
2013-10-16 16:57:00,60.9,54.0,29.97,NW,326,0.0,1.0,79,0.00,,,0.00,weatherlink.com 1.10,2013-10-16 20:57:00,
2013-10-16 17:12:00,60.6,54.0,29.96,ESE,107,0.0,1.0,79,0.00,,,0.00,weatherlink.com 1.10,2013-10-16 21:12:00,
2013-10-16 17:27:00,60.1,54.0,29.96,NNW,346,0.0,1.0,81,0.00,,,0.00,weatherlink.com 1.10,2013-10-16 21:27:00,
2013-10-16 17:42:00,59.6,54.0,29.96,WNW,296,0.0,1.0,82,0.00,,,0.00,weatherlink.com 1.10,2013-10-16 21:42:00,
2013-10-16 17:57:00,59.2,54.0,29.96,NNW,329,0.0,1.0,83,0.00,,,0.00,weatherlink.com 1.10,2013-10-16 21:57:00,
2013-10-16 18:12:00,58.8,54.0,29.97,NNW,328,0.0,1.0,84,0.00,,,0.00,weatherlink.com 1.10,2013-10-16 22:12:00,
2013-10-16 18:27:00,58.5,54.0,29.96,NNW,329,0.0,1.0,85,0.00,,,0.00,weatherlink.com 1.10,2013-10-16 22:27:00,
2013-10-16 18:42:00,58.2,54.0,29.96,NW,321,0.0,1.0,85,0.00,,,0.00,weatherlink.com 1.10,2013-10-16 22:42:00,
2013-10-16 18:57:00,57.9,54.0,29.96,NNE,17,0.0,0.0,86,0.00,,,0.00,weatherlink.com 1.10,2013-10-16 22:57:00,
2013-10-16 19:12:00,57.7,54.0,29.96,NNW,333,0.0,0.0,86,0.00,,,0.00,weatherlink.com 1.10,2013-10-16 23:12:00,
2013-10-16 19:27:00,57.5,54.0,29.96,ENE,66,0.0,0.0,87,0.00,,,0.00,weatherlink.com 1.10,2013-10-16 23:27:00,
2013-10-16 19:42:00,57.4,54.0,29.95,ENE,75,0.0,1.0,87,0.00,,,0.00,weatherlink.com 1.10,2013-10-16 23:42:00,
2013-10-16 19:57:00,57.1,53.0,29.95,WNW,298,0.0,0.0,87,0.00,,,0.00,weatherlink.com 1.10,2013-10-16 23:57:00,
2013-10-16 20:12:00,57.0,54.0,29.95,WNW,297,0.0,0.0,88,0.00,,,0.00,weatherlink.com 1.10,2013-10-17 00:12:00,
2013-10-16 20:27:00,56.8,53.0,29.95,WNW,297,0.0,1.0,88,0.00,,,0.00,weatherlink.com 1.10,2013-10-17 00:27:00,
2013-10-16 20:42:00,56.6,53.0,29.95,WNW,298,0.0,1.0,88,0.00,,,0.00,weatherlink.com 1.10,2013-10-17 00:42:00,
2013-10-16 20:57:00,56.5,53.0,29.95,NNE,12,0.0,0.0,89,0.00,,,0.00,weatherlink.com 1.10,2013-10-17 00:57:00,
2013-10-16 21:12:00,56.2,53.0,29.94,WNW,298,0.0,1.0,90,0.00,,,0.00,weatherlink.com 1.10,2013-10-17 01:12:00,
2013-10-16 21:27:00,56.3,54.0,29.94,West,267,0.0,1.0,91,0.00,,,0.00,weatherlink.com 1.10,2013-10-17 01:27:00,
2013-10-16 21:42:00,56.2,54.0,29.94,WSW,254,0.0,0.0,91,0.00,,,0.00,weatherlink.com 1.10,2013-10-17 01:42:00,
2013-10-16 21:57:00,56.0,54.0,29.93,WSW,254,0.0,0.0,91,0.00,,,0.00,weatherlink.com 1.10,2013-10-17 01:57:00,
2013-10-16 22:12:00,55.6,53.0,29.92,WSW,254,0.0,1.0,92,0.00,,,0.00,weatherlink.com 1.10,2013-10-17 02:12:00,
2013-10-16 22:27:00,55.2,53.0,29.92,West,271,0.0,1.0,92,0.00,,,0.00,weatherlink.com 1.10,2013-10-17 02:27:00,
2013-10-16 22:42:00,54.9,53.0,29.91,West,271,0.0,1.0,92,0.00,,,0.00,weatherlink.com 1.10,2013-10-17 02:42:00,
2013-10-16 22:57:00,54.7,53.0,29.91,East,97,0.0,1.0,93,0.00,,,0.00,weatherlink.com 1.10,2013-10-17 02:57:00,
2013-10-16 23:12:00,54.1,52.0,29.91,East,97,0.0,0.0,93,0.00,,,0.00,weatherlink.com 1.10,2013-10-17 03:12:00,
2013-10-16 23:27:00,53.7,52.0,29.92,SW,218,0.0,0.0,94,0.00,,,0.00,weatherlink.com 1.10,2013-10-17 03:27:00,
2013-10-16 23:42:00,53.8,52.0,29.91,SW,218,0.0,0.0,94,0.00,,,0.00,weatherlink.com 1.10,2013-10-17 03:42:00,
2013-10-16 23:57:00,53.7,52.0,29.90,SW,218,0.0,0.0,94,0.00,,,0.00,weatherlink.com 1.10,2013-10-17 03:57:00,